Location: Peterborough
(44.3091°N, 78.3197°W)
Time: 06:25:34
(UTC-04:00)

Transit 2A Rocket - All Passes

Search period start: 22 March 2023 00:00
Search period end: 01 April 2023 00:00
Orbit: 583 x 916 km, 66.7° (Epoch: 21 March)

Date Brightness Start Highest point End Pass type
(mag) Time Alt. Az. Time Alt. Az. Time Alt. Az.
22 Mar - 00:17:45 10° W 00:18:21 10° W 00:18:55 10° WSW visible
22 Mar - 11:28:59 10° ESE 11:29:40 10° E 11:30:21 10° E daylight
22 Mar - 13:05:38 10° SSW 13:11:02 71° ESE 13:16:56 10° NE daylight
22 Mar - 14:49:36 10° W 14:54:15 26° NW 14:59:11 10° NNE daylight
22 Mar - 20:05:39 10° N 20:10:08 21° NE 20:14:34 10° E visible
22 Mar - 21:47:34 10° NNW 21:53:45 80° ENE 21:59:37 10° SE visible
22 Mar - 23:31:37 10° WNW 23:35:36 19° WSW 23:39:29 10° SW visible
23 Mar - 12:22:52 10° S 12:27:57 43° ESE 12:33:29 10° NE daylight
23 Mar - 14:05:30 10° WSW 14:10:39 37° NW 14:16:11 10° NNE daylight
23 Mar - 15:52:57 10° NW 15:55:08 12° NNW 15:57:20 10° N daylight
23 Mar - 19:22:50 10° N 19:26:19 15° NNE 19:29:46 10° ENE daylight
23 Mar - 21:04:24 10° NNW 21:10:24 52° NE 21:16:09 10° SE visible
23 Mar - 22:47:31 10° NW 22:52:45 31° WSW 22:57:45 10° SSW visible
24 Mar - 11:40:38 10° SSE 11:45:02 26° ESE 11:49:44 10° NE daylight
24 Mar - 13:21:46 10° SW 13:27:12 56° NW 13:33:05 10° NNE daylight
24 Mar - 15:07:46 10° WNW 15:11:12 16° NNW 15:14:44 10° N daylight
24 Mar - 18:40:16 10° N 18:42:23 12° NNE 18:44:29 10° NE daylight
24 Mar - 20:21:21 10° NNW 20:26:56 35° NE 20:32:19 10° ESE visible
24 Mar - 22:03:53 10° NW 22:09:46 50° WSW 22:15:20 10° S visible
25 Mar - 10:59:15 10° SE 11:02:14 15° ESE 11:05:20 10° ENE daylight
25 Mar - 12:38:24 10° SSW 12:43:53 88° WNW 12:49:53 10° NNE daylight
25 Mar - 14:23:05 10° W 14:27:24 21° NW 14:31:54 10° NNE daylight
25 Mar - 19:38:21 10° NNW 19:43:18 25° NE 19:48:08 10° E daylight
25 Mar - 21:20:30 10° NW 21:26:38 80° WSW 21:32:27 10° SSE visible
25 Mar - 23:05:30 10° WNW 23:08:13 13° W 23:10:52 10° SW visible
26 Mar - 11:55:23 10° SSW 12:00:44 58° ESE 12:06:32 10° NE daylight
26 Mar - 13:38:47 10° WSW 13:43:43 30° NW 13:48:57 10° NNE daylight
26 Mar - 15:27:22 10° NNW 15:28:26 10° NNW 15:29:31 10° N daylight
26 Mar - 18:55:28 10° N 18:59:33 18° NNE 19:03:34 10° ENE daylight
26 Mar - 20:37:15 10° NNW 20:43:22 66° NE 20:49:11 10° SE visible
26 Mar - 22:20:49 10° NW 22:25:25 23° WSW 22:29:50 10° SSW visible
27 Mar - 11:12:49 10° S 11:17:42 34° ESE 11:22:58 10° NE daylight
27 Mar - 12:54:50 10° WSW 13:00:10 44° NW 13:05:55 10° NNE daylight
27 Mar - 14:41:38 10° NW 14:44:27 13° NNW 14:47:19 10° N daylight
27 Mar - 18:12:43 10° N 18:15:40 14° NNE 18:18:35 10° NE daylight
27 Mar - 19:54:07 10° NNW 19:59:57 43° NE 20:05:33 10° ESE visible
27 Mar - 21:36:58 10° NW 21:42:31 38° WSW 21:47:46 10° S visible
28 Mar - 10:30:51 10° SSE 10:34:49 21° ESE 10:39:01 10° ENE daylight
28 Mar - 12:11:15 10° SW 12:16:47 68° NW 12:22:46 10° NNE daylight
28 Mar - 13:56:41 10° WNW 14:00:34 18° NNW 14:04:35 10° N daylight
28 Mar - 17:30:27 10° N 17:31:40 11° NNE 17:32:53 10° NNE daylight
28 Mar - 19:11:05 10° NNW 19:16:24 30° NE 19:21:33 10° ESE daylight
28 Mar - 20:53:26 10° NW 20:59:27 62° WSW 21:05:09 10° SSE visible
29 Mar - 09:50:16 10° ESE 09:52:05 12° E 09:53:54 10° E daylight
29 Mar - 11:28:01 10° SSW 11:33:31 76° ESE 11:39:30 10° NE daylight
29 Mar - 13:12:10 10° W 13:16:48 25° NW 13:21:42 10° NNE daylight
29 Mar - 18:28:07 10° NNW 18:32:43 21° NE 18:37:12 10° E daylight
29 Mar - 20:10:07 10° NNW 20:16:16 84° ENE 20:22:05 10° SSE visible
29 Mar - 21:54:21 10° WNW 21:58:02 17° WSW 22:01:37 10° SW visible
30 Mar - 10:45:11 10° S 10:50:25 46° ESE 10:56:04 10° NE daylight
30 Mar - 12:28:01 10° WSW 12:33:11 35° NW 12:38:41 10° NNE daylight
30 Mar - 14:15:40 10° NW 14:17:43 12° NNW 14:19:47 10° N daylight
30 Mar - 17:45:17 10° N 17:48:54 16° NNE 17:52:29 10° ENE daylight
30 Mar - 19:26:55 10° NNW 19:32:56 55° NE 19:38:39 10° SE daylight
30 Mar - 21:10:08 10° NW 21:15:11 28° WSW 21:20:01 10° SSW visible
31 Mar - 10:02:51 10° SSE 10:07:27 28° ESE 10:12:22 10° NE daylight
31 Mar - 11:44:13 10° SW 11:49:42 53° NW 11:55:36 10° NNE daylight
31 Mar - 13:30:24 10° WNW 13:33:46 15° NNW 13:37:12 10° N daylight
31 Mar - 17:02:39 10° N 17:04:58 12° NNE 17:07:16 10° NE daylight
31 Mar - 18:43:49 10° NNW 18:49:27 37° NE 18:54:51 10° ESE daylight
31 Mar - 20:26:27 10° NW 20:32:13 46° WSW 20:37:41 10° S visible
